[ hide orbit diagram ]
For accurate long-term ephemerides, please instead use our Horizons system.This orbit viewer was implemented using two-body methods, and hence should not be used for determining accurate long-term trajectories (over several years or decades) or planetary encounter circumstances.
Orbital Elements at Epoch 2459000.5 (2020-May-31.0) TDB
Reference: JPL 27 (heliocentric ecliptic J2000)
Element | Value | Uncertainty (1-sigma) | Units |
e | .2228717515051871 | 5.8048e-08 | |
a | 2.452186349526006 | 2.1809e-08 | au |
q | 1.905663282790034 | 1.4495e-07 | au |
i | 8.636000830473419 | 6.2116e-06 | deg |
node | 338.4975185348305 | 3.1758e-05 | deg |
peri | 5.728968022765592 | 3.3347e-05 | deg |
M | 267.0969442975646 | 1.2926e-05 | deg |
tp | 2459362.456292113712 (2021-May-27.95629211) | 5.3663e-05 | TDB |
period | 1402.583200043444 3.84 | 1.8711e-05 5.123e-08 | d yr |
n | .2566692656726882 | 3.4241e-09 | deg/d |
Q | 2.998709416261977 | 2.6669e-08 | au |
|
| | Orbit Determination Parameters
Additional Information
|
[ show covariance matrix ]
Physical Parameter Table
Parameter |
Symbol |
Value |
Units |
Sigma |
Reference |
Notes |
absolute magnitude |
H |
16.5 |
|
n/a |
MPO434330 |
|
|
376574 Michalkusiak | Discovered 2007 Jan. 19 by R. Ferrando at Pla D´Arguines. |
Michal Kusiak (b. 1986) is an extraordinary popularizer of astronomy in Poland. He discovered more than 150 comets on images taken by the SOHO spacecraft, as well as a number of minor planets. Name proposed by R. Reszelewski. |
NOTE: some special characters may not display properly (any characters within {} are an attempt to place the proper accent above a character) |
Reference: MPC batch dated 2014-01-16 | Last Updated: 2014-01-21 |
|
|